OK2ZEO-5 Weather Reports


time (UTC)temp
F
wind
direction
speed
knots
gust
knots
rain 1hr
in
rain 24hr
in
rain mn
in
humidity
%
barometer
mb
20260506205003 65 131 0.0 5.2 0.00 0.00 0.00 61 1006.0
20260506204503 65 129 0.0 1.7 0.00 0.00 0.00 61 1006.0
20260506204003 65 181 0.0 0.9 0.00 0.00 0.00 61 1006.0
20260506203503 65 0 0.0 0.0 0.00 0.00 0.00 61 1006.0
20260506203003 65 0 0.0 0.0 0.00 0.00 0.00 60 1006.0
20260506202503 66 0 0.0 0.0 0.00 0.00 0.00 60 1005.9
20260506202219 66 0 0.0 0.0 0.00 0.00 0.00 59 1005.9
20260506201503 66 0 0.0 0.0 0.00 0.00 0.00 58 1005.8
20260506201003 66 0 0.0 0.0 0.00 0.00 0.00 58 1005.7
20260506200503 66 128 0.0 3.5 0.00 0.00 0.00 57 1005.7
20260506200003 67 128 0.0 3.5 0.00 0.00 0.00 57 1005.6
20260506195503 67 141 0.0 3.5 0.00 0.00 0.00 57 1005.6
20260506195003 67 131 0.9 7.0 0.00 0.00 0.00 57 1005.6
20260506194503 67 136 0.9 7.0 0.00 0.00 0.00 56 1005.6
20260506194003 67 141 0.9 7.0 0.00 0.00 0.00 56 1005.5
20260506193504 67 130 1.7 11.3 0.00 0.00 0.00 56 1005.5
20260506193003 68 132 1.7 12.2 0.00 0.00 0.00 56 1005.5
20260506192503 68 135 0.9 12.2 0.00 0.00 0.00 55 1005.5
20260506192003 68 127 0.9 7.8 0.00 0.00 0.00 55 1005.6
20260506191503 68 138 0.9 7.8 0.00 0.00 0.00 54 1005.5
20260506191003 68 132 1.7 9.6 0.00 0.00 0.00 54 1005.5
20260506190503 68 127 2.6 10.4 0.00 0.00 0.00 54 1005.4
20260506190003 68 128 3.5 11.3 0.00 0.00 0.00 53 1005.4
20260506185503 69 126 6.1 13.0 0.00 0.00 0.00 53 1005.4
20260506185216 69 127 5.2 13.0 0.00 0.00 0.00 53 1005.4
20260506184717 69 126 5.2 13.0 0.00 0.00 0.00 53 1005.4
20260506184218 69 123 3.5 11.3 0.00 0.00 0.00 52 1005.3
20260506183503 69 133 0.9 8.7 0.00 0.00 0.00 52 1005.3
20260506183003 69 139 1.7 9.6 0.00 0.00 0.00 52 1005.2
20260506182503 69 154 2.6 12.2 0.00 0.00 0.00 52 1005.2
20260506182218 70 157 2.6 12.2 0.00 0.00 0.00 52 1005.1
20260506181503 70 154 0.9 6.1 0.00 0.00 0.00 52 1005.1
20260506181003 70 130 0.9 6.1 0.00 0.00 0.00 52 1005.0
20260506180503 70 136 0.9 5.2 0.00 0.00 0.00 52 1004.9
20260506180004 70 133 1.7 10.4 0.00 0.00 0.00 52 1005.0
20260506175503 70 129 1.7 10.4 0.00 0.00 0.00 51 1004.9
20260506175003 70 127 2.6 12.2 0.00 0.00 0.00 51 1004.7
20260506174503 70 127 4.3 13.0 0.00 0.00 0.00 51 1004.8
20260506174003 70 126 5.2 13.0 0.00 0.00 0.00 51 1004.8
20260506173503 71 131 4.3 13.9 0.00 0.00 0.00 50 1004.9
20260506173003 71 138 4.3 13.9 0.00 0.00 0.00 50 1004.9
20260506172503 71 132 3.5 10.4 0.00 0.00 0.00 50 1004.9
20260506172003 71 129 4.3 10.4 0.00 0.00 0.00 50 1004.9
20260506171503 71 129 4.3 9.6 0.00 0.00 0.00 50 1004.9
20260506171003 71 129 3.5 10.4 0.00 0.00 0.00 50 1004.9
20260506170503 71 132 2.6 10.4 0.00 0.00 0.00 49 1004.9
20260506170003 71 134 1.7 7.8 0.00 0.00 0.00 49 1004.9
20260506165503 71 131 2.6 8.7 0.00 0.00 0.00 49 1005.0
20260506165003 71 128 5.2 11.3 0.00 0.00 0.00 49 1004.9
20260506164503 71 126 5.2 14.8 0.00 0.00 0.00 49 1004.9
20260506164003 71 127 4.3 14.8 0.00 0.00 0.00 50 1004.8
20260506163503 71 129 3.5 13.0 0.00 0.00 0.00 50 1004.9
20260506163215 71 130 4.3 13.0 0.00 0.00 0.00 50 1004.9
20260506162716 71 129 3.5 15.6 0.00 0.00 0.00 50 1005.0
20260506162218 71 138 5.2 15.6 0.00 0.00 0.00 49 1005.1
20260506161503 72 142 6.1 18.2 0.00 0.00 0.00 49 1005.2
20260506161003 72 128 7.0 18.2 0.00 0.00 0.00 51 1005.3
20260506160503 72 126 5.2 13.0 0.00 0.00 0.00 51 1005.4
20260506160003 72 126 4.3 14.8 0.00 0.00 0.00 51 1005.4
20260506155503 72 123 5.2 14.8 0.00 0.00 0.00 52 1005.5
20260506155003 72 124 6.1 13.0 0.00 0.00 0.00 52 1005.5
20260506154503 71 126 4.3 11.3 0.00 0.00 0.00 54 1005.7
20260506154003 70 129 5.2 12.2 0.00 0.00 0.00 55 1005.8
20260506153503 70 130 4.3 12.2 0.00 0.00 0.00 56 1005.9
20260506153219 70 130 2.6 12.2 0.00 0.00 0.00 57 1006.0
20260506152503 70 130 3.5 13.9 0.00 0.00 0.00 54 1006.1
20260506152003 70 128 4.3 14.8 0.00 0.00 0.00 54 1006.2
20260506151718 70 127 4.3 14.8 0.00 0.00 0.00 54 1006.2
20260506151003 70 129 4.3 11.3 0.00 0.00 0.00 54 1006.2
20260506150503 70 131 4.3 11.3 0.00 0.00 0.00 55 1006.3
20260506150003 70 129 4.3 11.3 0.00 0.00 0.00 54 1006.3
20260506145503 71 128 3.5 12.2 0.00 0.00 0.00 52 1006.3
20260506145003 71 124 3.5 12.2 0.00 0.00 0.00 52 1006.4
20260506144503 72 121 5.2 16.5 0.00 0.00 0.00 52 1006.4
20260506144003 72 125 6.1 16.5 0.00 0.00 0.00 51 1006.4
20260506143503 72 129 5.2 16.5 0.00 0.00 0.00 50 1006.4
20260506143003 72 126 6.1 14.8 0.00 0.00 0.00 49 1006.5
20260506142503 72 128 4.3 14.8 0.00 0.00 0.00 48 1006.6
20260506142003 72 155 2.6 11.3 0.00 0.00 0.00 47 1006.6
20260506141503 72 150 3.5 12.2 0.00 0.00 0.00 46 1006.6
20260506141003 73 136 2.6 12.2 0.00 0.00 0.00 45 1006.6
20260506140503 73 145 1.7 9.6 0.00 0.00 0.00 45 1006.6
20260506140003 74 150 1.7 10.4 0.00 0.00 0.00 44 1006.7
20260506135503 74 137 2.6 10.4 0.00 0.00 0.00 44 1006.7
20260506135003 73 129 3.5 12.2 0.00 0.00 0.00 44 1006.8
20260506134504 73 137 1.7 12.2 0.00 0.00 0.00 44 1006.9
20260506134003 74 145 0.9 8.7 0.00 0.00 0.00 44 1007.0
20260506133717 74 149 1.7 8.7 0.00 0.00 0.00 44 1007.0
20260506133218 73 139 4.3 12.2 0.00 0.00 0.00 46 1007.0
20260506132503 72 127 6.1 13.9 0.00 0.00 0.00 46 1007.1
20260506132216 72 128 5.2 13.9 0.00 0.00 0.00 47 1007.1
20260506131503 72 160 3.5 13.0 0.00 0.00 0.00 46 1007.3
20260506131003 72 171 1.7 11.3 0.00 0.00 0.00 45 1007.3
20260506130503 73 143 1.7 13.0 0.00 0.00 0.00 45 1007.3
20260506130003 73 147 2.6 13.0 0.00 0.00 0.00 44 1007.3
20260506125503 73 171 3.5 10.4 0.00 0.00 0.00 44 1007.4
20260506125003 73 167 3.5 8.7 0.00 0.00 0.00 43 1007.5
20260506124503 73 173 3.5 13.0 0.00 0.00 0.00 44 1007.5
20260506124003 72 174 3.5 13.0 0.00 0.00 0.00 43 1007.6
20260506123503 73 173 3.5 11.3 0.00 0.00 0.00 43 1007.6
20260506123003 73 191 4.3 14.8 0.00 0.00 0.00 43 1007.5
20260506122503 73 198 3.5 14.8 0.00 0.00 0.00 43 1007.6
20260506122003 73 204 0.9 7.0 0.00 0.00 0.00 45 1007.6
20260506121503 72 212 0.0 5.2 0.00 0.00 0.00 47 1007.6
20260506121003 71 192 0.0 4.3 0.00 0.00 0.00 47 1007.6
20260506120503 71 148 0.0 7.0 0.00 0.00 0.00 48 1007.7
20260506120003 71 186 2.6 9.6 0.00 0.00 0.00 48 1007.7
20260506115503 71 193 4.3 9.6 0.00 0.00 0.00 48 1007.7
20260506115003 71 181 3.5 10.4 0.00 0.00 0.00 47 1007.8
20260506114503 72 156 2.6 10.4 0.00 0.00 0.00 47 1007.7
20260506114003 73 161 1.7 9.6 0.00 0.00 0.00 47 1007.8
20260506113503 73 176 1.7 7.8 0.00 0.00 0.00 46 1007.8
20260506113003 73 175 1.7 8.7 0.00 0.00 0.00 47 1007.9
20260506112719 72 185 0.9 9.6 0.00 0.00 0.00 48 1008.0
20260506112003 72 162 2.6 12.2 0.00 0.00 0.00 49 1008.0
20260506111503 72 164 3.5 12.2 0.00 0.00 0.00 47 1008.0
20260506111003 72 177 3.5 14.8 0.00 0.00 0.00 47 1008.0
20260506110719 72 179 2.6 14.8 0.00 0.00 0.00 48 1008.1
20260506110003 72 193 1.7 13.0 0.00 0.00 0.00 48 1008.1
20260506105503 71 183 3.5 10.4 0.00 0.00 0.00 47 1008.2
20260506105003 72 151 4.3 11.3 0.00 0.00 0.00 46 1008.2
20260506104503 72 129 4.3 11.3 0.00 0.00 0.00 48 1008.1
20260506104003 72 132 2.6 11.3 0.00 0.00 0.00 47 1008.1
20260506103503 72 196 1.7 10.4 0.00 0.00 0.00 47 1008.3
20260506103003 72 194 0.9 10.4 0.00 0.00 0.00 47 1008.3
20260506102503 71 189 1.7 7.8 0.00 0.00 0.00 50 1008.4
20260506102003 70 188 2.6 11.3 0.00 0.00 0.00 49 1008.4
20260506101503 71 171 3.5 11.3 0.00 0.00 0.00 50 1008.5
20260506101003 71 165 2.6 11.3 0.00 0.00 0.00 49 1008.4
20260506100503 70 210 1.7 11.3 0.00 0.00 0.00 50 1008.5
20260506100219 70 205 2.6 12.2 0.00 0.00 0.00 50 1008.5
20260506095503 70 157 3.5 12.2 0.00 0.00 0.00 49 1008.5
20260506095003 70 138 2.6 9.6 0.00 0.00 0.00 50 1008.5
20260506094503 70 244 2.6 9.6 0.00 0.00 0.00 50 1008.6
20260506094003 69 250 2.6 9.6 0.00 0.00 0.00 53 1008.6
20260506093503 69 260 0.0 7.0 0.00 0.00 0.00 54 1008.6
20260506093217 68 258 0.9 7.0 0.00 0.00 0.00 55 1008.6
20260506092503 68 268 0.9 9.6 0.00 0.00 0.00 53 1008.5
20260506092003 69 219 0.9 8.7 0.00 0.00 0.00 54 1008.5
20260506091503 69 207 0.9 8.7 0.00 0.00 0.00 54 1008.6
20260506091003 68 213 0.9 6.1 0.00 0.00 0.00 54 1008.6
20260506090503 68 227 2.6 8.7 0.00 0.00 0.00 55 1008.6
20260506090003 68 241 2.6 8.7 0.00 0.00 0.00 55 1008.5
20260506085503 67 254 1.7 7.0 0.00 0.00 0.00 57 1008.5
20260506085003 67 255 1.7 8.7 0.00 0.00 0.00 56 1008.5
20260506084503 66 274 0.9 8.7 0.00 0.00 0.00 57 1008.6
20260506084003 66 249 0.9 7.8 0.00 0.00 0.00 57 1008.6
20260506083503 66 209 0.9 7.0 0.00 0.00 0.00 58 1008.6
20260506083003 65 274 3.5 9.6 0.00 0.00 0.00 59 1008.6
20260506082503 65 271 3.5 9.6 0.00 0.00 0.00 60 1008.6
20260506082218 65 262 2.6 9.6 0.00 0.00 0.00 61 1008.6
20260506081503 65 250 0.0 5.2 0.00 0.00 0.00 59 1008.6
20260506081003 65 276 0.9 9.6 0.00 0.00 0.00 59 1008.5
20260506080718 65 276 0.9 9.6 0.00 0.00 0.00 60 1008.6
20260506080218 65 267 0.0 3.5 0.00 0.00 0.00 62 1008.5
20260506073503 65 230 1.7 7.0 0.00 0.00 0.00 64 1008.5
20260506073003 64 236 2.6 10.4 0.00 0.00 0.00 62 1008.6
20260506072503 64 258 2.6 10.4 0.00 0.00 0.00 63 1008.6
20260506072003 64 234 2.6 8.7 0.00 0.00 0.00 64 1008.6
20260506071503 64 212 2.6 5.2 0.00 0.00 0.00 63 1008.5
20260506071003 64 225 0.9 7.0 0.00 0.00 0.00 66 1008.5
20260506070503 64 213 0.9 8.7 0.00 0.00 0.00 66 1008.6
20260506062503 62 214 0.0 6.1 0.00 0.00 0.00 70 1008.6
20260506062218 62 210 0.9 6.1 0.00 0.00 0.00 69 1008.6
20260506061503 62 202 0.0 5.2 0.00 0.00 0.00 70 1008.5
20260506061003 61 124 0.0 4.3 0.00 0.00 0.00 73 1008.6
20260506060503 61 120 0.0 4.3 0.00 0.00 0.00 74 1008.4
20260506051219 54 0 0.0 0.0 0.00 0.00 0.00 76 1008.2
20260506050503 53 0 0.0 0.0 0.00 0.00 0.00 76 1008.2
20260506045003 51 0 0.0 0.0 0.00 0.00 0.00 73 1008.0
20260506044716 51 0 0.0 0.0 0.00 0.00 0.00 72 1008.0
20260506044003 50 0 0.0 0.0 0.00 0.00 0.00 74 1008.0
20260506043504 49 0 0.0 0.0 0.00 0.00 0.00 75 1008.0
20260506043219 49 0 0.0 0.0 0.00 0.00 0.00 75 1008.0
20260506042503 49 0 0.0 0.0 0.00 0.00 0.00 76 1007.7
20260506042217 49 0 0.0 0.0 0.00 0.00 0.00 76 1007.6
20260506041503 50 0 0.0 0.0 0.00 0.00 0.00 76 1007.5
20260506041003 50 0 0.0 0.0 0.00 0.00 0.00 77 1007.5
20260506040503 50 0 0.0 0.0 0.00 0.00 0.00 77 1007.5
20260506040003 50 0 0.0 0.0 0.00 0.00 0.00 77 1007.5
20260506035503 50 0 0.0 0.0 0.00 0.00 0.00 77 1007.6
20260506035003 51 0 0.0 0.0 0.00 0.00 0.00 77 1007.5
20260506034503 51 0 0.0 0.0 0.00 0.00 0.00 77 1007.5
20260506034217 51 0 0.0 0.0 0.00 0.00 0.00 77 1007.5
20260506033503 51 0 0.0 0.0 0.00 0.00 0.00 77 1007.5
20260506033004 52 0 0.0 0.0 0.00 0.00 0.00 77 1007.4
20260506032503 52 0 0.0 0.0 0.00 0.00 0.00 77 1007.3
20260506032003 52 143 0.0 2.6 0.00 0.00 0.00 77 1007.2
20260506031503 52 143 0.0 2.6 0.00 0.00 0.00 77 1007.2
20260506031003 53 0 0.0 0.0 0.00 0.00 0.00 77 1007.3
20260506030503 53 145 0.0 3.5 0.00 0.00 0.00 77 1007.3
20260506030003 52 145 0.0 3.5 0.00 0.00 0.00 77 1007.3
20260506025503 52 0 0.0 0.0 0.00 0.00 0.00 77 1007.3
20260506025003 52 0 0.0 0.0 0.00 0.00 0.00 77 1007.2
20260506024503 52 0 0.0 0.0 0.00 0.00 0.00 77 1007.2
20260506024003 52 0 0.0 0.0 0.00 0.00 0.00 77 1007.1
20260506023503 52 0 0.0 0.0 0.00 0.00 0.00 77 1007.1
20260506023003 52 0 0.0 0.0 0.00 0.00 0.00 77 1007.2
20260506022503 53 0 0.0 0.0 0.00 0.00 0.00 77 1007.0
20260506022003 53 145 0.0 0.9 0.00 0.00 0.00 77 1007.0
20260506021503 53 186 0.0 0.9 0.00 0.00 0.00 77 1007.0
20260506021003 53 258 0.0 0.9 0.00 0.00 0.00 77 1007.0
20260506020503 53 0 0.0 0.0 0.00 0.00 0.00 77 1007.1
20260506020003 53 0 0.0 0.0 0.00 0.00 0.00 77 1007.1
20260506015503 53 0 0.0 0.0 0.00 0.00 0.00 77 1007.0
20260506015003 53 0 0.0 0.0 0.00 0.00 0.00 77 1006.9
20260506014719 53 0 0.0 0.0 0.00 0.00 0.00 77 1007.0
20260506014003 53 0 0.0 0.0 0.00 0.00 0.00 76 1007.1
20260506013503 53 0 0.0 0.0 0.00 0.00 0.00 77 1007.1
20260506013003 53 0 0.0 0.0 0.00 0.00 0.00 76 1007.2
20260506012504 53 0 0.0 0.0 0.00 0.00 0.00 76 1007.2
20260506012216 53 0 0.0 0.0 0.00 0.00 0.00 76 1007.3
20260506011503 53 0 0.0 0.0 0.00 0.00 0.00 75 1007.1
20260506011003 53 0 0.0 0.0 0.00 0.00 0.00 75 1006.9
20260506010719 53 0 0.0 0.0 0.00 0.00 0.00 75 1006.9
20260506010003 53 0 0.0 0.0 0.00 0.00 0.00 75 1006.9
20260506005717 54 287 0.0 1.7 0.00 0.00 0.00 74 1007.0
20260506005003 54 287 0.0 1.7 0.00 0.00 0.00 74 1006.9
20260506004504 54 0 0.0 0.0 0.00 0.00 0.00 73 1006.8
20260506004003 54 0 0.0 0.0 0.00 0.00 0.00 73 1007.0
20260506003716 55 0 0.0 0.0 0.00 0.00 0.00 72 1007.0
20260506003218 55 0 0.0 0.0 0.00 0.00 0.00 72 1007.0
20260506002718 55 0 0.0 0.0 0.00 0.00 0.00 72 1007.0
20260506002219 55 0 0.0 0.0 0.00 0.00 0.00 71 1007.1
20260506001503 55 0 0.0 0.0 0.00 0.00 0.00 71 1007.1
20260506001003 55 0 0.0 0.0 0.00 0.00 0.00 71 1007.1
20260506000503 56 278 0.0 2.6 0.00 0.00 0.00 70 1007.0
20260506000003 56 278 0.0 2.6 0.00 0.00 0.00 69 1007.0
20260505235503 57 0 0.0 0.0 0.00 0.00 0.00 68 1007.0
20260505235003 57 191 0.0 0.9 0.00 0.00 0.00 68 1007.0
20260505234503 58 199 0.0 3.5 0.00 0.00 0.00 66 1007.1
20260505234003 58 199 0.0 3.5 0.00 0.00 0.00 66 1007.1
20260505233503 58 175 0.0 1.7 0.00 0.00 0.00 66 1007.0
20260505233003 58 148 0.0 2.6 0.00 0.00 0.00 66 1006.8
20260505232503 58 146 0.9 3.5 0.00 0.00 0.00 66 1006.9
20260505232003 58 162 0.9 3.5 0.00 0.00 0.00 66 1006.9
20260505231503 58 178 1.7 4.3 0.00 0.00 0.00 65 1006.8
20260505231003 58 163 1.7 7.0 0.00 0.00 0.00 64 1006.8
20260505230503 59 131 1.7 7.0 0.00 0.00 0.00 63 1006.8
20260505230003 59 129 1.7 7.0 0.00 0.00 0.00 63 1006.8
20260505225503 59 125 0.9 4.3 0.00 0.00 0.00 62 1006.7
20260505225003 60 119 3.5 9.6 0.00 0.00 0.00 61 1006.7
20260505224503 60 118 3.5 11.3 0.00 0.00 0.00 60 1006.7
20260505224219 60 118 3.5 11.3 0.00 0.00 0.00 60 1006.7
20260505223503 61 120 5.2 12.2 0.00 0.00 0.00 59 1006.8
20260505223003 61 120 5.2 12.2 0.00 0.00 0.00 60 1006.7
20260505222503 60 123 2.6 10.4 0.00 0.00 0.00 59 1006.7
20260505222003 61 120 1.7 8.7 0.00 0.00 0.00 59 1006.8
20260505221716 61 120 1.7 10.4 0.00 0.00 0.00 59 1006.7
20260505221217 61 121 0.9 10.4 0.00 0.00 0.00 59 1006.7
20260505220503 61 118 1.7 10.4 0.00 0.00 0.00 59 1006.7
20260505220004 61 114 3.5 10.4 0.00 0.00 0.00 58 1006.7
20260505215503 61 118 3.5 11.3 0.00 0.00 0.00 57 1006.7
20260505215003 61 121 2.6 11.3 0.00 0.00 0.00 57 1006.7
20260505214503 61 120 1.7 7.0 0.00 0.00 0.00 58 1006.8
20260505214003 61 122 0.9 7.0 0.00 0.00 0.00 58 1006.7
20260505213503 61 121 0.0 3.5 0.00 0.00 0.00 58 1006.8
20260505213216 61 121 0.9 6.1 0.00 0.00 0.00 57 1006.8
20260505212503 62 125 1.7 6.1 0.00 0.00 0.00 56 1006.9
20260505212003 62 125 1.7 6.1 0.00 0.00 0.00 56 1006.8
20260505211503 62 124 1.7 7.8 0.00 0.00 0.00 56 1006.8
20260505211003 62 124 1.7 7.8 0.00 0.00 0.00 55 1006.8
20260505210503 63 126 0.9 6.1 0.00 0.00 0.00 55 1006.8
20260505210003 63 125 0.0 6.1 0.00 0.00 0.00 54 1006.9
20260505205503 63 126 0.9 8.7 0.00 0.00 0.00 54 1006.9